STARLINK-34347, 64226

Orbit data source: Space-Track

STARLINK-34347, 64226 is a payload satellite owned by SpaceX/Seattle (US) in LEO that was launched on Thu, 05 Jun 2025 UTC via an FALCON 9 launch vehicle from the Air Force Western Test Range (AFWTR). Payload-class satellites include a variety of spacecraft equipped with specific instruments for various scientific and technological missions. These include communications satellites like Starlink; space stations such as the ISS; scientific satellites like the Hubble; Earth observation satellites from companies like Planet Labs, Umbra, and HawkEye 360; GPS; miniature CubeSats for education and research; and military/defense satellites.

Loading next visibility...
Identifier
64226, 2025-117Z
Orbit
LEO
Last TLE update
8 hours ago
Origin
Manufacturer
SpaceX/Seattle
Mission
Operational spacecraft
Bus & Motor
STARLINK V2MO, Unknown motor
Mass
575 kg wet, ~530 kg dry
Launch date (UTC)
2025-06-05 (2 weeks ago)
Launch vehicle
FALCON 9
Launch site
Air Force Western Test Range (AFWTR)
Object type
Payload
Rocket body
Debris
Shape & HBR
Unknown
Radar Cross Section
Large (>1 m²)

Expand to show TLE details & history

TLE from 8 hours ago
0 STARLINK-34347
1 64226U 25117Z   25169.91668981 -.01462062  00000-0 -13933-1 0  9990
2 64226  53.1599 190.4232 0000923  84.3563 211.1385 15.68834308  4010
Epoch: 2025-06-18T22:00Z
TLE epoch observation values (Epoch: 2025-06-18T22:00:01.999Z)
Latitude
-46.44342°
Longitude
-98.55997°
Altitude
378.572 km
Speed
7.682 km/s
True Right ascension
09h 15m 21s
True Declination
-46° 15' 43"
Sunlit
Object was in daylight at epoch
Visualization orbit readout
Latitude
50.09949°
Longitude
68.30922°
Altitude
370.563 km
Speed
7.694 km/s
Apparent Right ascension
01h 19m 27s
Apparent Declination
16° 06' 32"
Sunlit
Object is in daylight
Visualization observer readout
Local Sidereal Time
17:13:03
Azimuth
56.781° ENE
Elevation
-12.01°
Doppler factor
1
Orbital elements
Apogee altitude
363.117 km
Perigee altitude
361.872 km
Semi-major axis
6,740.631 km
Eccentricity
0.00009
Inclination
53.1599°
RAAN
190.4232°
Arg. of periapsis
84.3563°
True anomaly
Unknown
Mean anomaly
211.1385°
Eccentric anomaly
Unknown
Mean motion
3.92186 °/min
Orbital period
91.79 mins
BSTAR
-0.013933
Loading maneuver chart data...
Loading SW <> Apogee altitude chart data...
Loading historical data...
Loading historical data...
Loading historical data...
Loading historical data...
Loading historical data...
Loading historical data...
Loading historical data...

STARLINK-34347 Visibility forecast

Observer location: undefined°, undefined°

Span
Click to sort rows by Start time (UTC) header in descending order
Start Az.
Max El. time (UTC)
Max El. Az.
Max El.
End time (UTC)
End Az.
4 mins2025-06-19 11:01:34.868Z312.391° NW2025-06-19 11:02:34.868Z318.294° NNW41.476°2025-06-19 11:05:34.868Z129.207° SE
4 mins2025-06-20 03:32:34.868Z200.492° SSW2025-06-20 03:34:34.868Z115.442° SE34.688°2025-06-20 03:36:34.868Z64.946° ENE
|